User: anonymous   Login
Location: Newark
(49.2191°N, 12.6671°E)
Time: 17:47:51
(UTC+00:00)
Language:

Vanguard 2 Rocket - Orbit

View from above orbital plane
View from above orbital plane
View from above satellite
View from above satellite

Ground track
Ground track

The orbit data is extracted from the following two-line orbital elements,

1    12U 59001B   20019.80101542 -.00000050  00000-0 -28936-4 0  9990
2    12  32.8983 154.5323 1666427   9.1571 353.5843 11.44311913505410
Epoch (UTC): 19 January 2020 19:13:27
Eccentricity: 0.1666427
inclination: 32.8983°
perigee height: 554 km
apogee height: 3326 km
right ascension of ascending node: 154.5323°
argument of perigee: 9.1571°
revolutions per day: 11.44311913
mean anomaly at epoch: 353.5843°
orbit number at epoch: 50541

The dashed part of the orbit path shows where the satellite is in the earth's shadow,  

DLR